[[{"header":{"parameterUnit":"m.s-1","parameterCategory":1,"la1":30.2991,"la2":30.254,"lo1":-89.0895,"lo2":-89.0444,"dy":0.0017,"dx":0.0017,"nx":28,"ny":28,"refTime":"2026-01-07T09:00:00:Z","depth":0,"parameterNumber":2,"parameterNumberName":"U-component_of_WINDS"},"data":[0,0,0,0,0,0,0,0,0,0,0,0,0,0,0,0,0,0,0,0,0,0,0,0,0,0,0,0,0,0,0,0,0,0,0,0,0,0,0,0,0,0,0,0,0,0,0,0,0,0,0,0,0,0,0,0,0,0,1.4348,1.4349,0,1.441,1.441,1.4411,1.4399,1.4398,1.4397,1.4396,1.4464,1.4467,1.4469,0,0,0,0,0,0,0,0,0,0,0,0,0,1.4225,1.4227,1.4348,1.4349,1.4349,1.4409,1.441,1.4411,1.4399,1.4398,1.4396,1.4395,1.4463,1.4466,1.447,0,0,0,0,0,0,0,0,0,0,0,0,0,1.4281,1.4228,1.4348,1.4351,1.4351,1.4409,1.441,1.4411,1.4399,1.4398,1.4396,1.4394,1.4462,1.4466,1.447,1.4531,0,0,1.4483,1.4485,0,0,0,0,0,0,0,0,1.4278,1.4286,1.4349,1.435,1.4351,1.4395,1.4392,1.4452,1.44,1.4381,1.4396,1.4394,1.4443,1.4448,1.4464,1.4534,1.4537,1.4484,1.4486,1.4488,1.4489,0,0,0,0,0,0,0,1.4274,1.4283,1.4372,1.435,1.4352,1.435,1.4357,1.4403,1.4421,1.4383,1.4382,1.4389,1.4443,1.446,1.4465,1.4538,1.4484,1.4487,1.449,1.4492,1.4661,1.4663,0,0,0,0,0,0,1.4269,1.428,1.437,1.4374,1.431,1.4354,1.4361,1.4383,1.442,1.4424,1.4391,1.4389,1.4453,1.446,1.4468,1.4541,1.4488,1.4492,1.4495,1.4659,1.4662,1.4664,0,0,0,0,0,0,1.4266,1.4277,1.4368,1.4327,1.4338,1.4358,1.4382,1.4385,1.4401,1.4426,1.443,1.4404,1.4452,1.4462,1.4515,1.4543,1.4494,1.4498,1.4657,1.466,1.4663,1.4688,0,0,0,0,0,0,1.4263,1.4276,1.4298,1.4327,1.4341,1.4413,1.4384,1.4387,1.4408,1.4406,1.444,1.4444,1.4451,1.4508,1.4519,1.4548,1.4501,1.4655,1.4658,1.4662,1.4685,1.4691,1.4697,0,0,0,0,0,1.4258,1.4304,1.4299,1.431,1.4368,1.4414,1.4422,1.4428,1.4411,1.4434,1.445,1.4443,1.4538,1.4514,1.4526,1.4557,1.4653,1.4657,1.4662,1.4682,1.469,1.4697,0,0,0,0,0,0,1.4278,1.4307,1.4303,1.4359,1.4384,1.4412,1.4441,1.4437,1.4469,1.4465,1.4474,1.4481,1.4536,1.4552,1.4524,1.4618,1.4593,1.46,1.4605,1.4613,1.4619,1.4614,1.4505,0,0,0,0,0,1.4289,1.4322,1.4347,1.4394,1.4406,1.4422,1.4442,1.4445,1.4472,1.4483,1.4503,1.4531,1.4567,1.4591,1.4626,1.4687,1.4695,1.4714,1.472,1.4725,1.4731,1.4765,1.4774,1.4678,1.4678,1.4678,0,0,1.4312,1.4332,1.4353,1.4398,1.4418,1.4454,1.4431,1.447,1.4497,1.4489,1.454,1.4556,1.4588,1.4645,1.4672,1.466,1.476,1.4731,1.4735,1.4738,1.4771,1.478,1.4788,1.4681,1.468,1.468,0,0,1.4372,1.439,1.4431,1.4451,1.4481,1.4491,1.4501,1.453,1.4539,1.459,1.4585,1.4619,1.4681,1.4704,1.4724,1.4793,1.4788,1.4804,1.4836,1.487,1.4877,1.4884,1.4909,1.4917,1.481,1.481,1.481,0,1.4396,1.4448,1.4453,1.4492,1.4513,1.4506,1.4549,1.4569,1.4609,1.4624,1.4611,1.4689,1.471,1.4773,1.4789,1.4806,1.4818,1.48,1.4875,1.4882,1.4889,1.4912,1.4922,1.4812,1.4812,1.4812,1.4811,0,1.4478,1.4514,1.4544,1.4581,1.4605,1.4646,1.4658,1.4683,1.4684,1.4696,1.4748,1.4773,1.4813,1.4828,1.483,1.4892,1.4884,1.4873,1.4849,1.4899,1.4922,1.4931,1.4814,1.4814,1.4813,1.4813,0,0,1.4551,1.459,1.4601,1.4618,1.4651,1.468,1.4721,1.4758,1.4779,1.4808,1.4843,1.4896,1.4886,1.4909,1.4913,1.4942,1.4996,1.4928,1.4929,1.494,1.5066,1.5073,1.5084,1.4993,1.4995,1.4996,1.5063,0,1.4613,1.4683,1.4689,1.4753,1.4787,1.4782,1.4819,1.4843,1.4856,1.4888,1.4903,1.494,1.4924,1.4937,1.4966,1.4983,1.5021,1.4978,1.5027,1.5029,1.5018,1.5095,1.5104,1.5165,1.5072,1.5073,1.5074,0,1.4695,1.4724,1.4791,1.4819,1.4834,1.4866,1.4901,1.4931,1.496,1.4967,1.4992,1.4993,1.5037,1.5012,1.5073,1.5044,1.5065,1.5076,1.5079,1.5083,1.5054,1.5102,1.5185,1.5194,1.5088,1.5087,1.5086,0,1.4741,1.4798,1.4845,1.486,1.4894,1.4916,1.4932,1.4959,1.4981,1.5013,1.5027,1.5064,1.5084,1.5114,1.5125,1.5106,1.5186,1.5162,1.5194,1.5194,1.5211,1.521,1.5299,1.5225,1.5225,1.5225,1.5225,0,1.481,1.4851,1.4866,1.4895,1.4941,1.4949,1.4995,1.501,1.5034,1.5067,1.5066,1.5098,1.5111,1.5145,1.5155,1.5204,1.5214,1.5222,1.5224,1.5221,1.522,1.5235,1.5231,1.5227,1.5227,1.5226,1.5226,0,1.4869,1.488,1.4932,1.4959,1.4968,1.5001,1.5025,1.5054,1.5067,1.5109,1.5119,1.5139,1.5179,1.5193,1.5243,1.5249,1.5307,1.5305,1.5296,1.5297,1.5328,1.5325,1.5429,1.5443,1.5361,1.5362,1.5362,0,1.4911,1.4942,1.4974,1.4995,1.5011,1.5045,1.5068,1.5077,1.51,1.5136,1.5161,1.52,1.5232,1.5297,1.5317,1.5355,1.5355,1.5389,1.536,1.5357,1.5355,1.5353,1.5356,1.5394,1.5394,1.5395,1.5396,0,1.4985,1.499,1.5021,1.5055,1.5081,1.5109,1.5135,1.5153,1.5167,1.5194,1.5234,1.5259,1.5308,1.5348,1.5387,1.5405,1.5403,1.5404,1.5414,1.5412,1.5405,1.5409,1.531,1.5402,1.5401,1.5401,1.54,1.54,1.5037,1.5065,1.5091,1.5126,1.5147,1.5172,1.52,1.5216,1.5249,1.5289,1.5293,1.5337,1.5366,1.5418,1.5438,1.5473,1.5464,1.5478,1.5481,1.5484,1.5487,1.54,1.548,1.548,1.548,1.548,1.548,0,1.5111,1.5127,1.516,1.5196,1.5225,1.5219,1.5249,1.5273,1.5311,1.5337,1.5369,1.5415,1.5454,1.5477,1.5516,1.554,1.554,1.555,1.5548,1.5553,1.5493,1.548,1.5549,1.5549,1.5549,1.5549,1.5549,1.5549,1.5152,1.5199,1.5206,1.5264,1.5281,1.5322,1.5339,1.5363,1.5384,1.5436,1.5467,1.5482,1.5508,1.5549,1.5584,1.559,1.5605,1.5616,1.5621,1.5564,1.5557,1.555,1.5538,1.5619,1.5619,1.5678,1.5678,1.5679]},{"header":{"parameterUnit":"m.s-1","parameterCategory":1,"la1":30.2991,"la2":30.254,"lo1":-89.0895,"lo2":-89.0444,"dy":0.0017,"dx":0.0017,"nx":28,"ny":28,"refTime":"2026-01-07T09:00:00:Z","depth":0,"parameterNumber":3,"parameterNumberName":"V-component_of_WINDS"},"data":[0,0,0,0,0,0,0,0,0,0,0,0,0,0,0,0,0,0,0,0,0,0,0,0,0,0,0,0,0,0,0,0,0,0,0,0,0,0,0,0,0,0,0,0,0,0,0,0,0,0,0,0,0,0,0,0,0,0,2.0443,2.0443,0,2.0479,2.048,2.048,2.0465,2.0464,2.0463,2.0462,2.0498,2.05,2.0502,0,0,0,0,0,0,0,0,0,0,0,0,0,2.0358,2.036,2.0442,2.0443,2.0443,2.0479,2.048,2.048,2.0465,2.0464,2.0463,2.0462,2.0498,2.05,2.0502,0,0,0,0,0,0,0,0,0,0,0,0,0,2.0395,2.036,2.0442,2.044,2.044,2.0479,2.048,2.048,2.0465,2.0464,2.0463,2.0462,2.0497,2.05,2.0502,2.0544,0,0,2.051,2.0511,0,0,0,0,0,0,0,0,2.0393,2.0398,2.044,2.0441,2.0441,2.0466,2.0463,2.0502,2.0466,2.0456,2.0462,2.0461,2.0489,2.0492,2.0501,2.0546,2.0548,2.051,2.0512,2.0513,2.0514,0,0,0,0,0,0,0,2.039,2.0396,2.0457,2.0441,2.0441,2.0437,2.0441,2.047,2.0479,2.0457,2.0456,2.046,2.0488,2.0499,2.0502,2.0548,2.051,2.0513,2.0514,2.0515,2.063,2.0631,0,0,0,0,0,0,2.0388,2.0394,2.0456,2.0458,2.0413,2.044,2.0444,2.0459,2.0479,2.048,2.0461,2.0459,2.0495,2.0499,2.0503,2.0555,2.0513,2.0516,2.0517,2.0628,2.063,2.0631,0,0,0,0,0,0,2.0386,2.0393,2.0454,2.0426,2.0433,2.0442,2.046,2.0461,2.0471,2.0482,2.0484,2.0471,2.0494,2.05,2.0535,2.0556,2.0517,2.0519,2.0626,2.0629,2.0631,2.0657,0,0,0,0,0,0,2.0384,2.0393,2.0409,2.0426,2.0435,2.0485,2.0461,2.0462,2.0476,2.0474,2.0491,2.0493,2.0494,2.0531,2.0537,2.0558,2.0521,2.0625,2.0627,2.063,2.0654,2.066,2.0664,0,0,0,0,0,2.0381,2.0415,2.041,2.0418,2.0456,2.0487,2.0491,2.0492,2.0478,2.0494,2.0501,2.0492,2.0552,2.0534,2.0542,2.0564,2.0623,2.0627,2.063,2.0652,2.0659,2.0664,0,0,0,0,0,0,2.0399,2.0417,2.0412,2.0453,2.0469,2.0484,2.0505,2.0499,2.0519,2.0516,2.0515,2.0519,2.0555,2.0563,2.0543,2.0606,2.0585,2.059,2.06,2.0606,2.0611,2.0609,2.0524,0,0,0,0,0,2.0408,2.0432,2.0446,2.0481,2.0489,2.0496,2.0509,2.0508,2.0524,2.0531,2.054,2.0555,2.0578,2.0592,2.0613,2.0655,2.0659,2.0674,2.0679,2.0683,2.0687,2.071,2.0717,2.0642,2.0642,2.0642,0,0,2.0427,2.044,2.0455,2.0485,2.0497,2.0522,2.0501,2.0528,2.0546,2.0534,2.0568,2.0576,2.0593,2.0631,2.0649,2.0639,2.0709,2.0687,2.0691,2.0693,2.0715,2.0722,2.0728,2.0644,2.0644,2.0644,0,0,2.0474,2.0485,2.0516,2.0528,2.0547,2.0551,2.0559,2.0575,2.058,2.0614,2.0606,2.0627,2.0665,2.0678,2.0689,2.0741,2.0733,2.0748,2.0774,2.0797,2.0803,2.0808,2.0827,2.0834,2.0752,2.0752,2.0752,0,2.0494,2.0531,2.0532,2.056,2.0573,2.0564,2.0595,2.0607,2.0631,2.0641,2.0629,2.0677,2.0688,2.073,2.0742,2.0752,2.076,2.0746,2.0802,2.0807,2.0812,2.083,2.0837,2.0754,2.0753,2.0753,2.0753,0,2.0556,2.0582,2.0604,2.0629,2.0645,2.0674,2.0678,2.0694,2.0692,2.0698,2.0732,2.0745,2.0769,2.0778,2.0776,2.082,2.0813,2.0802,2.0781,2.0821,2.0838,2.0845,2.0756,2.0755,2.0755,2.0754,0,0,2.0615,2.064,2.0648,2.066,2.068,2.07,2.0728,2.0752,2.0766,2.0783,2.0807,2.0839,2.0829,2.0842,2.0841,2.0861,2.0901,2.0847,2.0848,2.0857,2.0951,2.0959,2.0967,2.0896,2.0898,2.0899,2.0949,0,2.0664,2.0715,2.0716,2.0762,2.0786,2.0778,2.0803,2.0818,2.0824,2.0844,2.085,2.0874,2.0859,2.0866,2.0885,2.0893,2.092,2.0889,2.0918,2.092,2.0915,2.0976,2.0985,2.1032,2.0956,2.0957,2.0958,0,2.0727,2.0747,2.0796,2.0813,2.0823,2.0846,2.0868,2.0888,2.0904,2.0907,2.0922,2.0918,2.0947,2.0925,2.0965,2.0943,2.0955,2.0961,2.0962,2.0966,2.0941,2.0981,2.1047,2.1055,2.0968,2.0967,2.0966,0,2.0766,2.0805,2.0839,2.0849,2.087,2.0886,2.0895,2.091,2.0925,2.0944,2.0953,2.0975,2.0987,2.1004,2.1006,2.099,2.1046,2.1024,2.1049,2.1049,2.1061,2.106,2.1131,2.1068,2.1068,2.1068,2.1068,0,2.082,2.085,2.0857,2.0879,2.0912,2.0913,2.0947,2.0954,2.0968,2.099,2.0984,2.1005,2.1007,2.1028,2.103,2.1063,2.1068,2.1071,2.1071,2.1072,2.1071,2.108,2.1077,2.107,2.1069,2.1069,2.1069,0,2.0869,2.0875,2.0912,2.0929,2.0934,2.0958,2.0972,2.0992,2.0997,2.1026,2.1032,2.1041,2.1065,2.1069,2.1098,2.1099,2.1139,2.1135,2.1134,2.1133,2.1158,2.1156,2.1236,2.1247,2.1177,2.1178,2.1179,0,2.0904,2.0927,2.0946,2.0961,2.0972,2.0996,2.101,2.1012,2.1028,2.1049,2.1066,2.1091,2.1111,2.1151,2.1159,2.1181,2.1178,2.1205,2.1182,2.1182,2.1179,2.1178,2.1181,2.121,2.121,2.1211,2.1212,0,2.0964,2.0966,2.0988,2.1011,2.1029,2.1048,2.1065,2.1077,2.1081,2.1099,2.1125,2.114,2.117,2.1195,2.1217,2.1226,2.122,2.1219,2.1226,2.1227,2.1225,2.1227,2.1146,2.1217,2.1217,2.1216,2.1216,2.1216,2.1007,2.1028,2.1045,2.107,2.1083,2.1099,2.1119,2.1127,2.1149,2.1175,2.1174,2.1203,2.1218,2.1248,2.1258,2.128,2.1271,2.1281,2.1284,2.1286,2.1289,2.1222,2.1284,2.1284,2.1284,2.1283,2.1283,0,2.1068,2.1079,2.1102,2.1126,2.1146,2.1139,2.1157,2.1174,2.12,2.1215,2.1235,2.1265,2.1289,2.1299,2.1322,2.1338,2.1335,2.1344,2.1343,2.1345,2.1295,2.1287,2.1345,2.1345,2.1345,2.1345,2.1345,2.1345,2.1102,2.1136,2.114,2.1181,2.1192,2.122,2.1232,2.1247,2.1259,2.1293,2.1313,2.132,2.1333,2.1358,2.1379,2.1381,2.139,2.14,2.1401,2.1355,2.1348,2.1342,2.1335,2.1402,2.1402,2.1449,2.1449,2.145]}]]